Satellite: CO-58
Catalog number: 28895
Epoch time:      10300.60165547
Element set:     715
Inclination:      097.9934 deg
RA of node:       180.5463 deg
Eccentricity:    0.0017073
Arg of perigee:   227.9381 deg
Mean anomaly:     132.0357 deg
Mean motion:   14.59954611 rev/day
Decay rate:       3.69e-06 rev/day^2
Epoch rev:           26630
Checksum:              325

Satellite: FALCON
Catalog number: 30776
Epoch time:      10300.46993658
Element set:    0953
Inclination:      035.4348 deg
RA of node:       321.0490 deg
Eccentricity:    0.0001246
Arg of perigee:   282.7568 deg
Mean anomaly:     077.3009 deg
Mean motion:   15.03908896 rev/day
Decay rate:      1.414e-05 rev/day^2
Epoch rev:           19998
Checksum:              320

Satellite: MAST
Catalog number: 31126
Epoch time:      10300.59170137
Element set:     997
Inclination:      097.9226 deg
RA of node:       335.6603 deg
Eccentricity:    0.0094513
Arg of perigee:   173.8627 deg
Mean anomaly:     186.3747 deg
Mean motion:   14.53634466 rev/day
Decay rate:       1.12e-06 rev/day^2
Epoch rev:           18729
Checksum:              310

Satellite: CAPE1
Catalog number: 31130
Epoch time:      10301.80439860
Element set:      17
Inclination:      097.9238 deg
RA of node:       333.9598 deg
Eccentricity:    0.0102991
Arg of perigee:   179.0292 deg
Mean anomaly:     181.1061 deg
Mean motion:   14.52241003 rev/day
Decay rate:       2.09e-06 rev/day^2
Epoch rev:           18705
Checksum:              271

Satellite: COMPASS
Catalog number: 32787
Epoch time:      10300.30551468
Element set:    0815
Inclination:      097.8805 deg
RA of node:       003.1487 deg
Eccentricity:    0.0014976
Arg of perigee:   212.8167 deg
Mean anomaly:     147.2110 deg
Mean motion:   14.82017970 rev/day
Decay rate:       9.02e-06 rev/day^2
Epoch rev:           13506
Checksum:              281

Satellite: AAUSAT2
Catalog number: 32788
Epoch time:      10300.70054902
Element set:    0805
Inclination:      097.8805 deg
RA of node:       003.6959 deg
Eccentricity:    0.0014721
Arg of perigee:   212.0538 deg
Mean anomaly:     147.9794 deg
Mean motion:   14.82172615 rev/day
Decay rate:      1.289e-05 rev/day^2
Epoch rev:           13513
Checksum:              298

Satellite: DO-64
Catalog number: 32789
Epoch time:      10300.82854032
Element set:     822
Inclination:      097.8881 deg
RA of node:       004.4561 deg
Eccentricity:    0.0015013
Arg of perigee:   209.5738 deg
Mean anomaly:     150.4611 deg
Mean motion:   14.82392707 rev/day
Decay rate:      1.584e-05 rev/day^2
Epoch rev:           13515
Checksum:              295

Satellite: CO-66
Catalog number: 32791
Epoch time:      10300.21252044
Element set:    0807
Inclination:      097.8805 deg
RA of node:       003.0527 deg
Eccentricity:    0.0015125
Arg of perigee:   212.5282 deg
Mean anomaly:     147.5042 deg
Mean motion:   14.81779055 rev/day
Decay rate:       8.30e-06 rev/day^2
Epoch rev:           13500
Checksum:              263

Satellite: RS-30
Catalog number: 32953
Epoch time:      10301.50003976
Element set:     169
Inclination:      082.4995 deg
RA of node:       306.7858 deg
Eccentricity:    0.0018835
Arg of perigee:   167.2759 deg
Mean anomaly:     192.8804 deg
Mean motion:   12.43008848 rev/day
Decay rate:        1.0e-07 rev/day^2
Epoch rev:           11030
Checksum:              299

Satellite: TACSAT-3
Catalog number: 35001
Epoch time:      10301.80887240
Element set:     417
Inclination:      040.4539 deg
RA of node:       130.6598 deg
Eccentricity:    0.0023167
Arg of perigee:   287.1305 deg
Mean anomaly:     072.6973 deg
Mean motion:   15.43331857 rev/day
Decay rate:      8.011e-05 rev/day^2
Epoch rev:            8127
Checksum:              279

Satellite: PHARMSAT
Catalog number: 35002
Epoch time:      10300.88231926
Element set:     389
Inclination:      040.4684 deg
RA of node:       133.8541 deg
Eccentricity:    0.0025963
Arg of perigee:   282.9927 deg
Mean anomaly:     076.7988 deg
Mean motion:   15.43675952 rev/day
Decay rate:      7.498e-05 rev/day^2
Epoch rev:            8115
Checksum:              331

Satellite: HAWKSAT1
Catalog number: 35003
Epoch time:      10301.82163704
Element set:     424
Inclination:      040.4586 deg
RA of node:       118.2740 deg
Eccentricity:    0.0024359
Arg of perigee:   308.6466 deg
Mean anomaly:     051.2171 deg
Mean motion:   15.48477087 rev/day
Decay rate:     1.6719e-04 rev/day^2
Epoch rev:            8141
Checksum:              277

Satellite: CP6
Catalog number: 35004
Epoch time:      10301.78836223
Element set:     422
Inclination:      040.4608 deg
RA of node:       116.2216 deg
Eccentricity:    0.0023101
Arg of perigee:   314.3606 deg
Mean anomaly:     045.5304 deg
Mean motion:   15.49983853 rev/day
Decay rate:     2.1566e-04 rev/day^2
Epoch rev:            8142
Checksum:              259

Satellite: AEROCUB3
Catalog number: 35005
Epoch time:      10301.78343267
Element set:     500
Inclination:      040.4653 deg
RA of node:       102.9801 deg
Eccentricity:    0.0024051
Arg of perigee:   340.5960 deg
Mean anomaly:     019.3915 deg
Mean motion:   15.66044514 rev/day
Decay rate:    1.20483e-03 rev/day^2
Epoch rev:            8157
Checksum:              257

